Crescent City, CA

2:39 AM PDT on October 24, 2017 (GMT -0700)
McNamara

Weather History for KCEC - July, 2013

Change the Weather History Date:

Tuesday, July 9, 2013

  Actual Average Record
Temperature  
Mean Temperature 53 °F 56 °F  
Max Temperature 57 °F 61 °F 79 °F (1985)
Min Temperature 49 °F 51 °F 44 °F (1965)
Degree Days  
Heating Degree Days 14 9  
Month to date heating degree days 81  
Since 1 June heating degree days 390  
Since 1 July heating degree days 81  
Cooling Degree Days 0 0  
Month to date cooling degree days 0  
Year to date cooling degree days 0  
Since 1 June cooling degree days 0  
Moisture  
Dew Point 50 °F    
Average Humidity 93    
Maximum Humidity 100    
Minimum Humidity 86    
Precipitation  
Precipitation 0.00 in 0.02 in 0.85 in (1979)
Month to date precipitation 0.00 0.22  
Year to date precipitation 19.93 37.15  
Since 1 July precipitation 0.00  
Snow  
Snow 0.00 in - - ()
Month to date snowfall 0.0  
Since 1 June snowfall 0.0  
Since 1 July snowfall 0.0  
Snow Depth -    
Sea Level Pressure  
Sea Level Pressure 30.03 in    
Wind  
Wind Speed 5 mph (South)    
Max Wind Speed 12 mph    
Max Gust Speed 21 mph    
Visibility 4 miles    
Events Fog    
T = Trace of Precipitation, MM = Missing Value Source: NWS Daily Summary

Daily Weather History Graph

Daily Weather History Graph

Search for Another Location

Airport or City:

Trip Planner

Search our weather history database for the weather conditions in past years. The results will help you decide how hot, cold, wet, or windy it might be!

Date:

Astronomy

Jul. 09, 2013 Rise Set
Actual Time 5:51 AM PDT 8:53 PM PDT
Civil Twilight 5:17 AM PDT 9:26 PM PDT
Nautical Twilight 4:34 AM PDT 10:09 PM PDT
Astronomical Twilight 3:44 AM PDT 10:59 PM PDT
Moon 7:22 AM PDT (7/9) 9:31 PM PDT (7/9)
Length of Visible Light 16h 09m
Length of Day
15h 02m
New Moon, 2% of the Moon is Illuminated
Jul 9
New Moon
Jul 15
First Quarter
Jul 22
Full
Jul 29
Last Quarter
Aug 6
New

Hourly Weather History & Observations

Time (PDT) Temp. Windchill Dew Point Humidity Pressure Visibility Wind Dir Wind Speed Gust Speed Precip Events Conditions
12:56 AM 52.0 °F - 50.0 °F 93% 30.00 in 9.0 mi SE 3.5 mph - N/A   Clear
1:56 AM 51.1 °F - 50.0 °F 96% 30.00 in 8.0 mi Calm Calm - N/A   Clear
2:52 AM 50.0 °F - 48.2 °F 94% 29.99 in 7.0 mi Calm Calm - N/A   Scattered Clouds
2:56 AM 50.0 °F - 48.9 °F 96% 29.99 in 7.0 mi Calm Calm - N/A   Mostly Cloudy
3:56 AM 50.0 °F - 48.0 °F 93% 29.99 in 7.0 mi Calm Calm - N/A   Overcast
4:52 AM 50.0 °F - 48.2 °F 94% 29.99 in 6.0 mi Calm Calm - N/A   Overcast
4:56 AM 50.0 °F - 48.9 °F 96% 29.99 in 5.0 mi Calm Calm - N/A   Overcast
5:06 AM 50.0 °F - 50.0 °F 100% 29.99 in 1.8 mi Calm Calm - N/A   Overcast
5:15 AM 51.8 °F - 51.8 °F 100% 29.99 in 1.2 mi Calm Calm - N/A   Overcast
5:38 AM 51.8 °F - 51.8 °F 100% 29.99 in 0.8 mi South 3.5 mph - N/A   Mist
5:45 AM 51.8 °F - 51.8 °F 100% 29.99 in 1.0 mi South 3.5 mph - N/A   Mist
5:56 AM 51.1 °F - 51.1 °F 100% 30.00 in 0.8 mi South 3.5 mph - N/A   Mist
6:56 AM 51.1 °F - 51.1 °F 100% 30.01 in 0.2 mi South 6.9 mph - N/A Fog Fog
7:56 AM 50.0 °F - 50.0 °F 100% 30.03 in 0.2 mi South 6.9 mph - N/A Fog Fog
8:56 AM 50.0 °F - 50.0 °F 100% 30.04 in 0.2 mi SSE 8.1 mph - N/A Fog Fog
9:32 AM 51.8 °F - 51.8 °F 100% 30.04 in 1.5 mi South 8.1 mph - N/A   Overcast
9:47 AM 51.8 °F - 51.8 °F 100% 30.04 in 1.2 mi SSE 8.1 mph - N/A   Overcast
9:56 AM 50.0 °F - 50.0 °F 100% 30.05 in 1.2 mi South 9.2 mph - N/A   Overcast
10:48 AM 51.8 °F - 51.8 °F 100% 30.06 in 1.8 mi South 9.2 mph - N/A   Overcast
10:56 AM 53.1 °F - 52.0 °F 96% 30.06 in 1.5 mi South 8.1 mph - N/A   Overcast
11:09 AM 53.6 °F - 51.8 °F 94% 30.06 in 2.0 mi South 8.1 mph - N/A   Overcast
11:26 AM 53.6 °F - 51.8 °F 94% 30.06 in 1.2 mi SSE 9.2 mph - N/A   Overcast
11:56 AM 52.0 °F - 52.0 °F 100% 30.06 in 1.2 mi South 8.1 mph - N/A   Overcast
12:12 PM 51.8 °F - 51.8 °F 100% 30.06 in 2.0 mi Variable 3.5 mph - N/A   Overcast
12:21 PM 53.6 °F - 51.8 °F 94% 30.06 in 5.0 mi South 4.6 mph - N/A   Overcast
12:56 PM 55.9 °F - 53.1 °F 90% 30.06 in 10.0 mi South 6.9 mph - N/A   Mostly Cloudy
1:03 PM 55.4 °F - 53.6 °F 94% 30.06 in 10.0 mi SSW 8.1 mph - N/A   Scattered Clouds
1:30 PM 55.4 °F - 51.8 °F 88% 30.06 in 10.0 mi SW 6.9 mph - N/A   Mostly Cloudy
1:56 PM 55.0 °F - 52.0 °F 89% 30.07 in 10.0 mi SW 5.8 mph - N/A   Overcast
2:36 PM 55.4 °F - 51.8 °F 88% 30.06 in 10.0 mi Variable 4.6 mph - N/A   Mostly Cloudy
2:45 PM 55.4 °F - 51.8 °F 88% 30.06 in 10.0 mi Variable 4.6 mph - N/A   Partly Cloudy
2:56 PM 55.0 °F - 52.0 °F 89% 30.06 in 10.0 mi Variable 4.6 mph - N/A   Partly Cloudy
3:56 PM 55.0 °F - 52.0 °F 89% 30.05 in 10.0 mi WSW 4.6 mph - N/A   Clear
4:56 PM 55.0 °F - 51.1 °F 86% 30.05 in 10.0 mi South 6.9 mph - N/A   Clear
5:56 PM 53.1 °F - 50.0 °F 89% 30.05 in 10.0 mi WSW 4.6 mph - N/A   Scattered Clouds
6:07 PM 51.8 °F - 50.0 °F 94% 30.04 in 8.0 mi WSW 4.6 mph - N/A   Mostly Cloudy
6:22 PM 51.8 °F - 48.2 °F 88% 30.04 in 1.8 mi SW 4.6 mph - N/A   Overcast
6:33 PM 50.0 °F - 48.2 °F 94% 30.03 in 1.2 mi WSW 4.6 mph - N/A   Overcast
6:46 PM 51.8 °F - 50.0 °F 94% 30.03 in 2.0 mi Calm Calm - N/A   Overcast
6:56 PM 51.1 °F - 48.9 °F 92% 30.04 in 1.8 mi South 3.5 mph - N/A   Overcast
7:11 PM 50.0 °F - 48.2 °F 94% 30.03 in 3.0 mi SSW 3.5 mph - N/A   Overcast
7:29 PM 51.8 °F - 50.0 °F 94% 30.03 in 9.0 mi South 5.8 mph - N/A   Scattered Clouds
7:56 PM 50.0 °F - 48.0 °F 93% 30.03 in 5.0 mi South 5.8 mph - N/A   Scattered Clouds
8:08 PM 50.0 °F - 48.2 °F 94% 30.03 in 3.0 mi SE 3.5 mph - N/A   Mostly Cloudy
8:56 PM 48.9 °F - 48.0 °F 97% 30.04 in 4.0 mi SE 3.5 mph - N/A   Mostly Cloudy
9:12 PM 48.2 °F - 48.2 °F 100% 30.04 in 10.0 mi SSE 4.6 mph - N/A   Scattered Clouds
9:56 PM 48.9 °F - 48.9 °F 100% 30.04 in 10.0 mi Calm Calm - N/A   Clear
10:21 PM 46.4 °F - 46.4 °F 100% 30.04 in 2.5 mi Calm Calm - N/A   Partly Cloudy
10:24 PM 46.4 °F - 46.4 °F 100% 30.04 in 1.2 mi Calm Calm - N/A   Partly Cloudy
10:27 PM 46.4 °F - 46.4 °F 100% 30.04 in 0.8 mi Calm Calm - N/A   Mist
10:42 PM 46.4 °F 45.2 °F 46.4 °F 100% 30.03 in 1.5 mi NNW 3.5 mph - N/A   Mostly Cloudy
10:56 PM 46.9 °F - 46.9 °F 100% 30.04 in 0.8 mi NW 4.6 mph - N/A   Mist
11:56 PM 48.0 °F - 48.0 °F 100% 30.04 in 1.5 mi Calm Calm - N/A   Overcast